Voltar ao catálogo

CZ-4 DEB

AtivoSSO
NORAD 26126·DEBRIS·🇨🇳 China

Lançado Oct 14, 1999 de Taiyuan Satellite Launch Center

Loading…

Próximas Passagens (próximas 24 horas)

TLE

AtualizadoSource: Space-Track

Época: Sep 14, 2026, 10:30 UTC

1 26126U 99057N   26257.43754690  .00000640  00000-0  18558-3 0  9997
2 26126  98.6215 313.3276 0092544 268.6268 218.8775 14.45544415388652

Acompanhe CZ-4 DEB em tempo real com AllMySat

Download on the App Store